Tracking 30918 objects as of 3-Jul-2025
HD Live streaming from Space Station
objects crossing your sky now

COSMOS 1691 DEB

Track COSMOS 1691 DEB now!
10-day predictions


NORAD ID: 43316
Int'l Code: 1985-094AA
Perigee: 1,379.4 km
Apogee: 1,390.5 km
Inclination: 82.6 °
Period: 113.3 minutes
Semi major axis: 7755 km
RCS: Unknown
Launch date: October 9, 1985
Source: Commonwealth of Independent States (former USSR) (CIS)
Launch site: PLESETSK MISSILE AND SPACE COMPLEX (PKMTR)

Note: This is SATELLITE DEBRIS
Your satellite tracking list
THOR ABLESTAR DEB
Track 1 satellite(s)




NASA's NSSDC Master Catalog

Two Line Element Set (TLE):
1 43316U 85094AA  25179.98327513  .00000394  00000-0  19068-2 0  9997
2 43316  82.6022  72.8909 0007133  86.3221 273.8690 12.71016262 30680
Source of the keplerian elements: AFSPC